SAA244 FACT-FAPE

Flight info

Callsign SAA244
Flight time N/A
Altitude 33000
Route OKTED1C OKTED UQ12 XUGOL UQ56 OKSET DCT PEV
Aircraft A320/M-SDE3FGHIRWY/LB1

Departure

Time N/A
Airport Cape Town International Airport (FACT)

Arrival

Time 2026-04-22 09:25
Airport Chief Dawid Stuurman International Airport (FAPE)
Time Latitude Longitude Altitude Speed Heading
2026-04-22 09:15 -33.91732 25.41255 9015 ft 311 kts 70°
2026-04-22 09:15 -33.90260 25.45931 8308 ft 308 kts 70°
2026-04-22 09:16 -33.89503 25.48338 7739 ft 305 kts 70°
2026-04-22 09:16 -33.88753 25.50707 7243 ft 302 kts 70°
2026-04-22 09:16 -33.88015 25.53100 6747 ft 307 kts 72°
2026-04-22 09:16 -33.87312 25.55531 6243 ft 305 kts 73°
2026-04-22 09:17 -33.86646 25.57925 5740 ft 299 kts 73°
2026-04-22 09:17 -33.85995 25.60273 5201 ft 295 kts 73°
2026-04-22 09:17 -33.85354 25.62612 4571 ft 294 kts 74°
2026-04-22 09:17 -33.84733 25.64952 3945 ft 293 kts 74°
2026-04-22 09:18 -33.84113 25.67291 3320 ft 293 kts 74°
2026-04-22 09:18 -33.83503 25.69580 3052 ft 279 kts 74°
2026-04-22 09:18 -33.82924 25.71738 3005 ft 265 kts 74°
2026-04-22 09:18 -33.82386 25.73786 3005 ft 249 kts 80°
2026-04-22 09:19 -33.82407 25.75782 3005 ft 235 kts 115°
2026-04-22 09:19 -33.83230 25.77324 3005 ft 207 kts 150°
2026-04-22 09:19 -33.84466 25.77969 3015 ft 189 kts 178°
2026-04-22 09:19 -33.85747 25.78065 3013 ft 183 kts 188°
2026-04-22 09:20 -33.87027 25.77908 2628 ft 189 kts 194°
2026-04-22 09:20 -33.88330 25.77609 2351 ft 189 kts 196°
2026-04-22 09:20 -33.89581 25.77243 2219 ft 183 kts 204°
2026-04-22 09:20 -33.90655 25.76491 2110 ft 178 kts 224°
2026-04-22 09:21 -33.91418 25.75347 2054 ft 167 kts 238°
2026-04-22 09:21 -33.91992 25.74242 2006 ft 143 kts 238°
2026-04-22 09:21 -33.92507 25.73255 2003 ft 137 kts 238°
2026-04-22 09:21 -33.93004 25.72300 2006 ft 133 kts 239°
2026-04-22 09:22 -33.93492 25.71359 1945 ft 132 kts 238°
2026-04-22 09:22 -33.93980 25.70421 1820 ft 132 kts 238°
2026-04-22 09:22 -33.94464 25.69491 1673 ft 131 kts 238°
2026-04-22 09:22 -33.94947 25.68561 1505 ft 131 kts 238°
2026-04-22 09:23 -33.95431 25.67628 1333 ft 131 kts 238°
2026-04-22 09:23 -33.95916 25.66696 1159 ft 131 kts 238°
2026-04-22 09:23 -33.96392 25.65777 988 ft 130 kts 238°
2026-04-22 09:23 -33.96871 25.64855 818 ft 128 kts 238°
2026-04-22 09:24 -33.97347 25.63939 654 ft 130 kts 238°
2026-04-22 09:24 -33.97822 25.63017 460 ft 129 kts 238°
2026-04-22 09:24 -33.98301 25.62087 292 ft 131 kts 239°
2026-04-22 09:24 -33.98765 25.61197 214 ft 102 kts 237°
2026-04-22 09:25 -33.98985 25.60775 214 ft 27 kts 238°
2026-04-22 09:25 -33.99086 25.60582 213 ft 28 kts 238°
2026-04-22 09:25 -33.99190 25.60379 213 ft 29 kts 238°
2026-04-22 09:25 -33.99265 25.60168 211 ft 24 kts 293°
2026-04-22 09:26 -33.99128 25.60102 213 ft 22 kts 35°
2026-04-22 09:26 -33.99034 25.60263 212 ft 25 kts 57°
2026-04-22 09:26 -33.98935 25.60444 213 ft 27 kts 57°
2026-04-22 09:26 -33.98828 25.60641 212 ft 29 kts 57°
2026-04-22 09:27 -33.98718 25.60846 212 ft 28 kts 56°
2026-04-22 09:27 -33.98609 25.61056 213 ft 31 kts 59°
2026-04-22 09:27 -33.98502 25.61263 212 ft 16 kts 58°
2026-04-22 09:27 -33.98452 25.61318 215 ft 8 kts 336°
2026-04-22 09:28 -33.98426 25.61298 212 ft 2 kts 329°
2026-04-22 09:28 -33.98417 25.61291 213 ft 0 kts 327°